Regional Weather Roundup
Issued by NWS

Home | Current Version | Previous Version | Graphics & Text | Print | Product List | Glossary On
Versions: 1 2 3 4 5 6 7 8 9 10 11 12 13 14 15 16 17 18 19 20 21 22 23 24 25 26 27 28 29 30 31 32 33 34 35 36 37 38 39 40 41 42 43 44 45 46 47 48 49 50
172
ASUS43 KOAX 291610
RWRNE

WEATHER ROUNDUP FOR NEBRASKA
NATIONAL WEATHER SERVICE OMAHA NE
1100 AM CDT SAT APR 29 2017

NOTES: SATELLITE DATA IS BEING USED TO AUGMENT CLOUD COVER ABOVE
       12000 FEET.
       "FAIR" INDICATES FEW OR NO CLOUDS BELOW 12,000 FEET WITH NO
       SIGNIFICANT WEATHER AND/OR OBSTRUCTIONS TO VISIBILITY.

  * THESE STATIONS DO NOT REPORT WEATHER SUCH AS RAIN...SNOW OR FOG.

NEZ001>004-019>022-054>056-291700-
NEBRASKA PANHANDLE

CITY           SKY/WX    TMP DP  RH WIND       PRES   REMARKS
SCOTTSBLUFF    CLOUDY    37  26  64 N14       30.25F WCI  28
ALLIANCE       CLOUDY    38  24  57 NE14      30.23F WCI  30
CHADRON        CLOUDY    40  31  70 CALM      30.29F
KIMBALL        CLOUDY    34  29  82 N12       30.19S WCI  26
SIDNEY         CLOUDY    38  27  64 NE20      30.18F WCI  28
$$

NEZ057>060-069>072-079>082-291700-
SOUTHWEST NEBRASKA

CITY           SKY/WX    TMP DP  RH WIND       PRES   REMARKS
NORTH PLATTE   CLOUDY    41  26  55 NE17      30.14F
IMPERIAL       CLOUDY    39  28  64 N16G24    30.13F WCI  30
LEXINGTON      CLOUDY    41  30  64 NE17G24   30.09F
MCCOOK         CLOUDY    41  32  70 NE22G28   30.07F
OGALLALA       CLOUDY    41  25  53 N21       30.16F
$$

NEZ005>010-023>029-035>040-094-291700-
NORTH CENTRAL NEBRASKA

CITY           SKY/WX    TMP DP  RH WIND       PRES   REMARKS
VALENTINE      CLOUDY    46  15  28 NE14      30.26S
AINSWORTH      CLOUDY    43  24  47 NE13      30.24S
BROKEN BOW     CLOUDY    42  27  55 NE16      30.14F
O`NEILL        CLOUDY    46  26  44 N15       30.21S
ORD            CLOUDY    44  28  53 NE18G28   30.14F
THEDFORD       CLOUDY    43  24  47 N13       30.21R
$$

NEZ041-046>049-061>064-073>077-083>087-291700-
SOUTH CENTRAL NEBRASKA

CITY           SKY/WX    TMP DP  RH WIND       PRES   REMARKS
GRAND ISLAND   CLOUDY    43  35  73 NE25      30.06F
AURORA         CLOUDY    43  36  77 NE25G31   30.04F
HASTINGS       CLOUDY    41  35  79 NE25G32   30.02F
HEBRON         CLOUDY    41  39  93 NE23      29.97F
HOLDREGE       CLOUDY    40  33  76 N21       30.05F WCI  30
KEARNEY *      CLOUDY    43  30  61 NE23      30.07F
YORK           CLOUDY    43  37  81 NE22G31   30.04F
$$

NEZ011>018-030>034-042>045-291700-
NORTHEAST NEBRASKA

CITY           SKY/WX    TMP DP  RH WIND       PRES   REMARKS
NORFOLK        PTSUNNY   45  29  53 NE21G28   30.13R
ALBION         CLOUDY    46  32  58 NE15G22   30.14S
BLAIR          CLOUDY    44  35  71 NE21G28   30.04F
FREMONT        CLOUDY    44  35  69 NE13G20   30.11R
TEKAMAH        CLOUDY    46  34  62 NE18      30.11F
WAYNE          CLOUDY    46  31  56 NE18G25   30.15R
$$

NEZ050>053-065>068-078-088>093-291700-
SOUTHEAST NEBRASKA

CITY           SKY/WX    TMP DP  RH WIND       PRES   REMARKS
LINCOLN        CLOUDY    44  38  79 NE21G30   30.03S
OMAHA EPPLEY   LGT RAIN  45  36  70 N20G28    30.06F
BEATRICE       CLOUDY    43  40  88 NE16G28   30.00S
FALLS CITY     LGT RAIN  44  42  93 NE13G21   29.99R
NEBRASKA CITY  DRIZZLE   43  39  86 NE13      30.02R
PLATTSMOUTH    DRIZZLE   44  36  73 NE14G20   30.03R
$$

NEZ044-045-051>053-067-291700-
OMAHA AREA

CITY           SKY/WX    TMP DP  RH WIND       PRES   REMARKS
OMAHA EPPLEY   LGT RAIN  45  36  70 N20G28    30.06F
BLAIR          CLOUDY    44  35  71 NE21G28   30.04F
FREMONT        CLOUDY    44  35  69 NE13G20   30.11R
MILLARD        CLOUDY    47  36  67 N12G20    30.05F
OFFUTT AFB     CLOUDY    45  36  71 N17G24    30.02F
PLATTSMOUTH    DRIZZLE   44  36  73 NE14G20   30.03R
WAHOO          CLOUDY    43  35  74 NE17G23   30.07S
$$




USA.gov is the U.S. government's official web portal to all federal, state and local government web resources and services.